Weather in Shebekino

Russia / Belgorod Oblast     50°24′01″N   36°53′16″E
temp.,
°C
wind,
m/s
gust,
m/s
humid.,
%
clouds,
%
prec.,
mm/h
press.,
hPa
HPBL,
m
9 march, tue
tue900:00−3wnw368492 0.0 1011303
03:00−3wnw358565 0.0 1012363
06:00−4nw578596 0.1 1013590
09:00−5nw577896 0.1 1014670
12:00−4nnw5665100 0.0 10161047
15:00−4nw5664100 0.1 10181101
18:00−5nnw5671100 0.1 1019938
21:00−6nnw5767100 0.1 1022989
10 march, wed
wed1000:00−7nnw467291 0.0 1023855
03:00−8nw457995 0.1 1025591
06:00−9nnw358177 0.0 1026461
09:00−9nnw357454 0.0 1027517
12:00−6nnw345328 0.0 1028807
15:00−5nnw334524 0.0 1028982
18:00−5n335190 0.0 1027872
21:00−6nne336274 0.0 1028536
11 march, thu
thu1100:00−7ene347582 0.0 1029405
03:00−9e457789 0.0 1030402
06:00−10ene466997 0.1 1031407
09:00−11e456066 0.1 1032421
12:00−8e44390 0.0 1032784
15:00−7e33300 0.0 10321099
18:00−7e34340 0.0 10311009
21:00−8e45420 0.0 1032735
12 march, fri
fri1200:00−9ese45500 0.0 1033613
03:00−10se35550 0.0 1033465
06:00−11se35600 0.0 1034342
09:00−10se46540 0.0 1034440
12:00−6sse45380 0.0 1033804
15:00−4sse463217 0.0 10321041
18:00−4sse5731100 0.0 10311029
21:00−5sse6933100 0.0 1032882
13 march, sat
sat1300:00−5s61136100 0.0 1031767
03:00−5s61238100 0.0 1030711
06:00−6s7124085 0.0 1029631
09:00−5s7124092 0.0 1029670
12:00−2s81142100 0.0 1029874
15:000ssw71051100 0.0 1027964
18:00−1ssw5105899 0.0 1026854
21:00−1s5104598 0.0 1026554